Hourly Data Report for January 05, 2017

All times are specified in Local Standard Time (LST). Add 1 hour to adjust for Daylight Saving Time where and when it is observed.

ST LEONARD CS
NEW BRUNSWICK

47°09'28.050" N
67°49'55.014" W
245.00 m
810I001
71019
WIY

Download Data

Hourly Data (January 2017)
Hourly Data Report for January 5, 2017
Temp Definition
°C
Dew Point Temp Definition
°C
Rel Hum Definition
%
Wind Dir Definition
10's deg

Wind Spd Definition
km/h
Visibility Definition
km
Stn Press Definition
kPa
Hmdx Definition


Wind Chill Definition


Weather Definition


TIME
00:00 -2.1 -2.2 99 20 10   96.01   -6 LegendNANA
01:00 -1.8 -1.9 99 21 13   95.99   -6 LegendNANA
02:00 -1.9 -2.1 99 18 13   95.98   -6 LegendNANA
03:00 -2.1 -2.6 96 22 16   96.01   -7 LegendNANA
04:00 -2.9 -3.9 93 24 24   96.05   -10 LegendNANA
05:00 -5.2 -6.9 88 25 18   96.16   -11 LegendNANA
06:00 -6.1 -7.6 89 25 13   96.22   -11 LegendNANA
07:00 -6.2 -8.1 86 25 22   96.30   -13 LegendNANA
08:00 -7.0 -9.2 84 24 23   96.45   -15 LegendNANA
09:00 -8.2 -10.4 84 23 16   96.51   -15 LegendNANA
10:00 -7.6 -10.3 81 22 18   96.58   -14 LegendNANA
11:00 -7.4 -11.4 73 24 22   96.64   -15 LegendNANA
12:00 -7.6 -10.0 83 23 25   96.66   -16 LegendNANA
13:00 -8.1 -9.6 89 25 33   96.67   -17 LegendNANA
14:00 -9.4 -12.6 78 26 31   96.81   -19 LegendNANA
15:00 -10.7 -14.9 72 27 30   97.00   -20 LegendNANA
16:00 -11.5 -15.6 72 27 27   97.18   -21 LegendNANA
17:00 -12.3 -16.8 69 27 19   97.29   -21 LegendNANA
18:00 -14.5 -18.3 73 27 12   97.35   -21 LegendNANA
19:00 -16.6 -19.9 76 26 9   97.43   -23 LegendNANA
20:00 -16.1 -18.5 82 24 8   97.51   -22 LegendNANA
21:00 -13.1 -16.3 77 26 8   97.60   -18 LegendNANA
22:00 -13.6 -16.3 80 16 7   97.67   -18 LegendNANA
23:00 -14.9 -17.3 82 20 12   97.72   -22 LegendNANA

Notes on Data Quality.

Legend

  • E = Estimated
  • M = Missing
  • NA = Not Available
  • ‡ = Partner data that is not subject to review by the National Climate Archives
Date modified: